QPF
0.00 0.01 0.02 0.02 0.02 0.01 0.01 0.01 0.03 0.04 0.04 0.04 0.04 0.04 0.03 0.03 0.02 0.02 0.02 0.03 0.03 0.04 0.05 0.06 0.07 0.08 0.08 0.09 0.10 0.09 0.10 0.10 0.10 0.08 0.08 0.07 0.05 0.05 0.06 0.04 0.03 0.03 0.03
0.00 0.01 0.02 0.02 0.02 0.02 0.02 0.02 0.04 0.04 0.05 0.04 0.04 0.03 0.02 0.02 0.02 0.02 0.01 0.02 0.02 0.02 0.02 0.03 0.04 0.05 0.06 0.07 0.08 0.08 0.08 0.09 0.09 0.08 0.06 0.06 0.06 0.06 0.05 0.04 0.04 0.04 0.04
0.00 0.01 0.01 0.02 0.02 0.02 0.02 0.03 0.04 0.04 0.03 0.04 0.03 0.02 0.02 0.01 0.01 0.01 0.01 0.02 0.02 0.01 0.01 0.02 0.02 0.04 0.05 0.06 0.06 0.06 0.06 0.07 0.08 0.07 0.05 0.06 0.05 0.06 0.05 0.05 0.04 0.05 0.04
0.01 0.01 0.01 0.02 0.02 0.02 0.03 0.04 0.04 0.03 0.02 0.03 0.02 0.03 0.03 0.02 0.02 0.01 0.01 0.01 0.01 0.01 0.01 0.01 0.02 0.02 0.03 0.03 0.04 0.05 0.06 0.06 0.06 0.05 0.05 0.04 0.04 0.05 0.04 0.04 0.04 0.05 0.03
0.02 0.01 0.01 0.01 0.01 0.01 0.02 0.03 0.03 0.02 0.02 0.02 0.02 0.02 0.03 0.03 0.03 0.02 0.01 0.01 0.01 0.01 0.01 0.01 0.02 0.02 0.01 0.02 0.03 0.04 0.05 0.05 0.05 0.04 0.04 0.03 0.02 0.02 0.03 0.04 0.05 0.05 0.04
0.01 0.01 0.01 0.01 0.01 0.01 0.01 0.02 0.03 0.01 0.02 0.02 0.02 0.03 0.05 0.05 0.05 0.04 0.02 0.02 0.02 0.02 0.03 0.03 0.02 0.01 0.01 0.02 0.02 0.02 0.03 0.03 0.03 0.04 0.03 0.03 0.03 0.03 0.03 0.04 0.04 0.04 0.03
0.01 0.01 0.01 0.01 0.01 0.01 0.01 0.02 0.02 0.02 0.03 0.02 0.03 0.04 0.06 0.07 0.07 0.06 0.04 0.04 0.03 0.02 0.03 0.03 0.01 0.01 0.01 0.01 0.01 0.01 0.02 0.02 0.02 0.03 0.03 0.03 0.04 0.03 0.03 0.03 0.03 0.03 0.03
0.01 0.01 0.01 0.01 0.01 0.02 0.02 0.02 0.02 0.03 0.03 0.03 0.03 0.03 0.03 0.03 0.04 0.04 0.03 0.03 0.03 0.02 0.01 0.01 0.02 0.01 0.01 0.00 0.00 0.01 0.02 0.02 0.01 0.01 0.02 0.02 0.03 0.04 0.04 0.03 0.03 0.03 0.03
0.01 0.02 0.02 0.02 0.02 0.03 0.03 0.03 0.03 0.04 0.03 0.03 0.02 0.02 0.01 0.00 0.00 0.00 0.00 0.01 0.01 0.01 0.01 0.01 0.01 0.00 0.00 0.00 0.00 0.01 0.01 0.01 0.01 0.01 0.01 0.02 0.02 0.03 0.03 0.03 0.03 0.04 0.04
0.02 0.03 0.04 0.03 0.04 0.05 0.04 0.05 0.05 0.04 0.02 0.02 0.01 0.02 0.01 0.00 0.00 0.00 0.00 0.00 0.01 0.01 0.01 0.00 0.00 0.00 0.00 0.00 0.00 0.01 0.01 0.01 0.00 0.00 0.01 0.01 0.01 0.02 0.02 0.02 0.02 0.04 0.05
0.04 0.04 0.05 0.05 0.05 0.05 0.05 0.05 0.04 0.02 0.02 0.02 0.03 0.02 0.01 0.01 0.01 0.00 0.00 0.00 0.00 0.00 0.00 0.00 0.00 0.00 0.00 0.00 0.00 0.01 0.00 0.00 0.00 0.00 0.01 0.01 0.02 0.02 0.02 0.02 0.03 0.03 0.03
0.06 0.05 0.04 0.04 0.04 0.03 0.04 0.04 0.03 0.03 0.02 0.02 0.03 0.03 0.03 0.02 0.02 0.01 0.01 0.00 0.00 0.00 0.00 0.00 0.00 0.00 0.00 0.00 0.00 0.00 0.00 0.00 0.00 0.01 0.01 0.01 0.01 0.01 0.01 0.01 0.01 0.02 0.02
0.04 0.04 0.05 0.04 0.03 0.03 0.03 0.03 0.04 0.04 0.03 0.03 0.03 0.03 0.03 0.03 0.02 0.02 0.02 0.01 0.01 0.00 0.00 0.00 0.00 0.00 0.00 0.00 0.00 0.00 0.00 0.01 0.01 0.01 0.01 0.01 0.01 0.01 0.01 0.01 0.02 0.02 0.01
0.03 0.04 0.04 0.04 0.03 0.03 0.03 0.03 0.03 0.04 0.04 0.04 0.04 0.03 0.02 0.02 0.02 0.03 0.03 0.02 0.01 0.01 0.00 0.00 0.00 0.00 0.00 0.00 0.00 0.00 0.01 0.01 0.01 0.01 0.01 0.00 0.00 0.00 0.01 0.01 0.01 0.01 0.02
0.03 0.04 0.04 0.03 0.03 0.03 0.03 0.03 0.04 0.05 0.05 0.05 0.04 0.03 0.03 0.03 0.02 0.03 0.03 0.03 0.02 0.01 0.01 0.00 0.00 0.01 0.01 0.01 0.01 0.00 0.00 0.00 0.00 0.00 0.00 0.00 0.00 0.00 0.00 0.00 0.01 0.01 0.02
0.03 0.03 0.03 0.04 0.04 0.04 0.04 0.04 0.06 0.06 0.07 0.06 0.04 0.04 0.03 0.03 0.03 0.03 0.03 0.03 0.02 0.02 0.01 0.00 0.01 0.01 0.01 0.01 0.01 0.00 0.00 0.00 0.00 0.00 0.00 0.00 0.00 0.00 0.00 0.01 0.01 0.01 0.02
0.02 0.03 0.03 0.04 0.04 0.04 0.05 0.05 0.06 0.07 0.07 0.05 0.05 0.05 0.04 0.04 0.04 0.04 0.04 0.03 0.02 0.01 0.01 0.00 0.00 0.00 0.00 0.00 0.00 0.01 0.00 0.00 0.00 0.00 0.00 0.00 0.00 0.00 0.00 0.01 0.01 0.01 0.01
0.04 0.04 0.04 0.05 0.05 0.05 0.05 0.06 0.06 0.06 0.05 0.04 0.05 0.06 0.06 0.05 0.05 0.05 0.04 0.04 0.03 0.02 0.01 0.01 0.00 0.00 0.00 0.01 0.01 0.01 0.01 0.00 0.00 0.00 0.00 0.00 0.00 0.00 0.01 0.01 0.00 0.00 0.01
0.06 0.06 0.06 0.06 0.06 0.05 0.05 0.05 0.04 0.03 0.03 0.03 0.05 0.08 0.08 0.07 0.07 0.06 0.05 0.04 0.03 0.02 0.01 0.01 0.01 0.01 0.01 0.01 0.01 0.01 0.00 0.00 0.00 0.00 0.00 0.01 0.01 0.01 0.02 0.02 0.01 0.01 0.00
0.05 0.05 0.05 0.04 0.04 0.04 0.07 0.08 0.08 0.08 0.08 0.08 0.08 0.10 0.12 0.11 0.09 0.07 0.05 0.04 0.03 0.02 0.02 0.02 0.02 0.02 0.01 0.01 0.01 0.01 0.01 0.01 0.01 0.01 0.01 0.01 0.02 0.03 0.03 0.02 0.01 0.01 0.01
0.04 0.03 0.04 0.05 0.05 0.05 0.05 0.06 0.07 0.08 0.09 0.09 0.08 0.10 0.11 0.10 0.07 0.06 0.05 0.04 0.03 0.03 0.03 0.03 0.03 0.03 0.02 0.02 0.02 0.01 0.01 0.01 0.01 0.01 0.02 0.02 0.03 0.04 0.03 0.03 0.02 0.02 0.01
0.05 0.04 0.03 0.04 0.07 0.10 0.10 0.08 0.07 0.07 0.06 0.07 0.06 0.07 0.06 0.06 0.05 0.04 0.04 0.04 0.04 0.04 0.03 0.03 0.03 0.03 0.03 0.02 0.02 0.01 0.01 0.01 0.01 0.02 0.03 0.03 0.03 0.03 0.03 0.02 0.02 0.02 0.01
0.05 0.04 0.03 0.03 0.05 0.08 0.11 0.13 0.12 0.11 0.10 0.08 0.06 0.05 0.05 0.06 0.05 0.04 0.03 0.02 0.03 0.03 0.03 0.03 0.04 0.04 0.04 0.04 0.03 0.03 0.03 0.02 0.02 0.03 0.03 0.03 0.03 0.03 0.03 0.02 0.01 0.01 0.01
0.04 0.04 0.05 0.05 0.04 0.04 0.06 0.08 0.09 0.10 0.11 0.11 0.09 0.06 0.05 0.04 0.04 0.04 0.04 0.04 0.03 0.03 0.03 0.04 0.04 0.04 0.03 0.03 0.03 0.04 0.04 0.05 0.04 0.04 0.03 0.03 0.02 0.02 0.02 0.01 0.01 0.01 0.01
0.04 0.05 0.05 0.07 0.09 0.08 0.07 0.07 0.07 0.08 0.07 0.07 0.08 0.08 0.08 0.07 0.06 0.05 0.04 0.05 0.08 0.07 0.04 0.03 0.03 0.03 0.04 0.04 0.04 0.04 0.04 0.04 0.03 0.02 0.02 0.02 0.02 0.02 0.01 0.01 0.01 0.02 0.02
0.04 0.05 0.07 0.08 0.09 0.09 0.07 0.06 0.06 0.07 0.09 0.08 0.06 0.06 0.06 0.08 0.09 0.09 0.07 0.05 0.04 0.04 0.04 0.04 0.04 0.05 0.05 0.05 0.05 0.06 0.05 0.04 0.03 0.03 0.02 0.02 0.02 0.02 0.02 0.02 0.02 0.02 0.03
MSLP
1013.04 1013.37 1013.69 1013.98 1014.24 1014.44 1014.57 1014.63 1014.65 1014.65 1014.64 1014.66 1014.70 1014.77 1014.86 1014.94 1015.00 1015.02 1014.98 1014.88 1014.73 1014.55 1014.36 1014.18 1014.04 1013.96 1013.97 1014.06 1014.27 1014.59 1015.02 1015.54 1016.15 1016.82 1017.50 1018.18 1018.81 1019.35 1019.80 1020.13 1020.36 1020.50 1020.58
1012.49 1012.85 1013.21 1013.55 1013.86 1014.10 1014.27 1014.37 1014.42 1014.44 1014.45 1014.47 1014.53 1014.63 1014.75 1014.88 1014.99 1015.08 1015.12 1015.09 1015.01 1014.88 1014.72 1014.54 1014.38 1014.26 1014.20 1014.24 1014.38 1014.64 1015.02 1015.52 1016.11 1016.79 1017.51 1018.22 1018.90 1019.50 1019.99 1020.38 1020.65 1020.83 1020.93
1011.86 1012.24 1012.63 1013.02 1013.37 1013.66 1013.88 1014.03 1014.12 1014.17 1014.21 1014.26 1014.33 1014.44 1014.59 1014.75 1014.91 1015.05 1015.15 1015.19 1015.18 1015.12 1015.01 1014.88 1014.74 1014.62 1014.54 1014.54 1014.64 1014.85 1015.18 1015.64 1016.20 1016.85 1017.56 1018.27 1018.96 1019.58 1020.11 1020.54 1020.85 1021.06 1021.20
1011.25 1011.62 1012.02 1012.42 1012.81 1013.15 1013.42 1013.62 1013.77 1013.87 1013.95 1014.03 1014.13 1014.25 1014.40 1014.57 1014.75 1014.92 1015.06 1015.16 1015.21 1015.21 1015.17 1015.10 1015.02 1014.94 1014.89 1014.89 1014.97 1015.15 1015.44 1015.84 1016.35 1016.94 1017.60 1018.28 1018.94 1019.56 1020.10 1020.55 1020.90 1021.16 1021.35
1010.73 1011.05 1011.42 1011.83 1012.22 1012.59 1012.91 1013.18 1013.39 1013.56 1013.69 1013.81 1013.94 1014.07 1014.22 1014.38 1014.55 1014.71 1014.86 1014.99 1015.08 1015.14 1015.17 1015.18 1015.17 1015.15 1015.15 1015.19 1015.28 1015.44 1015.69 1016.03 1016.47 1016.99 1017.57 1018.18 1018.80 1019.39 1019.92 1020.38 1020.77 1021.08 1021.33
1010.36 1010.60 1010.91 1011.27 1011.65 1012.03 1012.38 1012.69 1012.97 1013.20 1013.40 1013.58 1013.74 1013.89 1014.04 1014.19 1014.33 1014.47 1014.61 1014.73 1014.84 1014.94 1015.03 1015.10 1015.17 1015.23 1015.30 1015.38 1015.50 1015.65 1015.87 1016.16 1016.52 1016.95 1017.44 1017.97 1018.51 1019.05 1019.56 1020.02 1020.44 1020.80 1021.12
1010.20 1010.32 1010.52 1010.79 1011.11 1011.45 1011.80 1012.14 1012.47 1012.77 1013.04 1013.28 1013.49 1013.68 1013.84 1013.98 1014.10 1014.22 1014.32 1014.43 1014.55 1014.67 1014.80 1014.93 1015.07 1015.20 1015.34 1015.47 1015.61 1015.78 1015.97 1016.20 1016.48 1016.82 1017.21 1017.64 1018.10 1018.57 1019.05 1019.51 1019.94 1020.35 1020.73
1010.25 1010.22 1010.27 1010.41 1010.62 1010.88 1011.18 1011.51 1011.86 1012.21 1012.54 1012.86 1013.13 1013.37 1013.56 1013.72 1013.84 1013.94 1014.04 1014.14 1014.25 1014.39 1014.55 1014.73 1014.92 1015.11 1015.30 1015.49 1015.66 1015.82 1015.99 1016.18 1016.39 1016.64 1016.93 1017.26 1017.63 1018.04 1018.46 1018.90 1019.34 1019.78 1020.21
1010.48 1010.29 1010.17 1010.13 1010.18 1010.31 1010.52 1010.79 1011.12 1011.49 1011.87 1012.24 1012.58 1012.89 1013.14 1013.34 1013.50 1013.62 1013.73 1013.84 1013.97 1014.13 1014.32 1014.54 1014.78 1015.02 1015.26 1015.47 1015.67 1015.84 1015.99 1016.13 1016.28 1016.45 1016.66 1016.90 1017.20 1017.53 1017.91 1018.31 1018.74 1019.18 1019.63
1010.86 1010.49 1010.18 1009.94 1009.80 1009.76 1009.83 1010.00 1010.26 1010.60 1010.99 1011.40 1011.81 1012.18 1012.51 1012.79 1013.02 1013.20 1013.37 1013.53 1013.70 1013.90 1014.13 1014.39 1014.66 1014.95 1015.22 1015.46 1015.67 1015.85 1015.98 1016.10 1016.21 1016.32 1016.46 1016.64 1016.86 1017.14 1017.45 1017.81 1018.21 1018.63 1019.07
1011.32 1010.79 1010.30 1009.86 1009.51 1009.27 1009.15 1009.18 1009.33 1009.59 1009.95 1010.37 1010.81 1011.25 1011.66 1012.03 1012.35 1012.63 1012.89 1013.13 1013.37 1013.64 1013.92 1014.23 1014.55 1014.87 1015.17 1015.44 1015.66 1015.85 1015.98 1016.09 1016.18 1016.26 1016.36 1016.49 1016.67 1016.89 1017.15 1017.46 1017.81 1018.19 1018.58
1011.79 1011.14 1010.49 1009.86 1009.31 1008.87 1008.55 1008.39 1008.39 1008.54 1008.82 1009.20 1009.65 1010.12 1010.60 1011.06 1011.49 1011.88 1012.24 1012.59 1012.93 1013.28 1013.64 1014.00 1014.37 1014.73 1015.06 1015.36 1015.60 1015.80 1015.95 1016.07 1016.16 1016.24 1016.33 1016.45 1016.60 1016.78 1017.01 1017.27 1017.56 1017.88 1018.22
1012.21 1011.49 1010.72 1009.96 1009.23 1008.60 1008.09 1007.74 1007.56 1007.56 1007.72 1008.01 1008.42 1008.89 1009.40 1009.93 1010.44 1010.94 1011.41 1011.87 1012.32 1012.76 1013.20 1013.63 1014.05 1014.45 1014.82 1015.15 1015.43 1015.66 1015.84 1015.98 1016.10 1016.21 1016.32 1016.45 1016.60 1016.77 1016.98 1017.20 1017.44 1017.70 1017.96
1012.52 1011.78 1010.97 1010.12 1009.27 1008.50 1007.82 1007.30 1006.94 1006.77 1006.77 1006.95 1007.26 1007.69 1008.18 1008.73 1009.29 1009.86 1010.43 1010.98 1011.52 1012.05 1012.57 1013.06 1013.54 1013.98 1014.39 1014.76 1015.08 1015.35 1015.58 1015.77 1015.94 1016.10 1016.26 1016.42 1016.59 1016.78 1016.98 1017.18 1017.39 1017.59 1017.80
1012.69 1011.99 1011.19 1010.32 1009.43 1008.57 1007.78 1007.12 1006.61 1006.27 1006.12 1006.14 1006.33 1006.66 1007.09 1007.60 1008.16 1008.76 1009.37 1009.98 1010.58 1011.17 1011.75 1012.30 1012.82 1013.31 1013.76 1014.16 1014.52 1014.84 1015.13 1015.39 1015.62 1015.85 1016.07 1016.29 1016.51 1016.73 1016.95 1017.15 1017.34 1017.51 1017.67
1012.70 1012.08 1011.36 1010.54 1009.68 1008.81 1007.98 1007.23 1006.61 1006.14 1005.84 1005.71 1005.75 1005.94 1006.26 1006.69 1007.19 1007.75 1008.35 1008.96 1009.58 1010.20 1010.80 1011.38 1011.94 1012.46 1012.94 1013.38 1013.79 1014.17 1014.51 1014.84 1015.15 1015.45 1015.74 1016.02 1016.30 1016.57 1016.82 1017.04 1017.23 1017.40 1017.53
1012.53 1012.04 1011.44 1010.74 1009.96 1009.15 1008.35 1007.59 1006.92 1006.36 1005.94 1005.68 1005.57 1005.62 1005.80 1006.09 1006.49 1006.96 1007.49 1008.06 1008.65 1009.25 1009.85 1010.43 1010.99 1011.53 1012.04 1012.51 1012.96 1013.39 1013.79 1014.18 1014.55 1014.92 1015.29 1015.64 1015.97 1016.29 1016.58 1016.83 1017.05 1017.22 1017.36
1012.23 1011.88 1011.42 1010.87 1010.23 1009.54 1008.83 1008.12 1007.46 1006.87 1006.38 1006.01 1005.78 1005.68 1005.71 1005.86 1006.12 1006.46 1006.89 1007.37 1007.89 1008.43 1008.99 1009.55 1010.11 1010.65 1011.17 1011.66 1012.14 1012.61 1013.06 1013.50 1013.93 1014.36 1014.77 1015.18 1015.56 1015.92 1016.25 1016.53 1016.78 1016.97 1017.12
1011.83 1011.60 1011.29 1010.90 1010.43 1009.89 1009.31 1008.70 1008.11 1007.54 1007.04 1006.61 1006.29 1006.07 1005.96 1005.97 1006.08 1006.28 1006.58 1006.94 1007.37 1007.84 1008.34 1008.86 1009.39 1009.91 1010.43 1010.95 1011.45 1011.94 1012.42 1012.90 1013.36 1013.82 1014.28 1014.71 1015.13 1015.52 1015.87 1016.18 1016.45 1016.67 1016.84
1011.36 1011.22 1011.05 1010.80 1010.50 1010.12 1009.70 1009.22 1008.73 1008.23 1007.76 1007.32 1006.95 1006.65 1006.44 1006.32 1006.30 1006.37 1006.54 1006.79 1007.11 1007.50 1007.94 1008.41 1008.90 1009.41 1009.93 1010.44 1010.95 1011.46 1011.96 1012.45 1012.93 1013.41 1013.87 1014.32 1014.74 1015.14 1015.50 1015.82 1016.10 1016.33 1016.52
1010.84 1010.77 1010.68 1010.56 1010.39 1010.17 1009.89 1009.56 1009.19 1008.79 1008.38 1007.97 1007.59 1007.25 1006.97 1006.77 1006.65 1006.62 1006.68 1006.84 1007.08 1007.39 1007.77 1008.20 1008.67 1009.17 1009.68 1010.19 1010.71 1011.22 1011.72 1012.20 1012.68 1013.15 1013.60 1014.03 1014.44 1014.82 1015.17 1015.48 1015.75 1015.98 1016.17
1010.28 1010.23 1010.19 1010.15 1010.08 1009.98 1009.83 1009.63 1009.38 1009.09 1008.76 1008.41 1008.06 1007.72 1007.42 1007.18 1007.00 1006.91 1006.91 1007.00 1007.19 1007.46 1007.81 1008.22 1008.67 1009.16 1009.67 1010.18 1010.70 1011.20 1011.69 1012.16 1012.61 1013.05 1013.46 1013.86 1014.23 1014.57 1014.89 1015.17 1015.42 1015.64 1015.82
1009.68 1009.62 1009.59 1009.58 1009.56 1009.54 1009.48 1009.38 1009.24 1009.04 1008.80 1008.52 1008.23 1007.93 1007.65 1007.41 1007.23 1007.13 1007.11 1007.19 1007.37 1007.63 1007.98 1008.39 1008.85 1009.35 1009.86 1010.38 1010.89 1011.38 1011.84 1012.28 1012.70 1013.08 1013.44 1013.78 1014.10 1014.39 1014.66 1014.90 1015.12 1015.31 1015.46
1009.02 1008.92 1008.87 1008.85 1008.86 1008.87 1008.87 1008.85 1008.78 1008.66 1008.50 1008.30 1008.08 1007.84 1007.62 1007.42 1007.28 1007.22 1007.23 1007.34 1007.55 1007.84 1008.22 1008.66 1009.15 1009.67 1010.19 1010.71 1011.22 1011.68 1012.12 1012.51 1012.87 1013.20 1013.50 1013.77 1014.02 1014.25 1014.46 1014.66 1014.83 1014.99 1015.11
1008.30 1008.15 1008.06 1008.03 1008.03 1008.06 1008.08 1008.09 1008.08 1008.02 1007.93 1007.81 1007.66 1007.50 1007.35 1007.23 1007.17 1007.17 1007.26 1007.44 1007.72 1008.08 1008.51 1009.01 1009.54 1010.09 1010.63 1011.15 1011.64 1012.08 1012.47 1012.81 1013.11 1013.36 1013.58 1013.78 1013.96 1014.13 1014.29 1014.43 1014.57 1014.68 1014.78
1007.54 1007.35 1007.24 1007.18 1007.16 1007.18 1007.21 1007.25 1007.26 1007.26 1007.22 1007.16 1007.09 1007.02 1006.96 1006.94 1006.98 1007.08 1007.27 1007.55 1007.92 1008.37 1008.88 1009.43 1010.01 1010.59 1011.15 1011.67 1012.14 1012.54 1012.88 1013.15 1013.38 1013.55 1013.69 1013.81 1013.92 1014.02 1014.12 1014.22 1014.32 1014.41 1014.49
Thickness
5813 5808 5804 5799 5795 5791 5786 5782 5778 5775 5771 5767 5764 5762 5759 5757 5755 5753 5751 5750 5747 5745 5744 5742 5740 5740 5738 5737 5734 5730 5726 5720 5709 5702 5698 5695 5692 5689 5685 5682 5679 5676 5672
5814 5809 5804 5800 5796 5791 5786 5782 5778 5774 5770 5767 5763 5760 5757 5754 5752 5749 5747 5746 5743 5741 5739 5738 5736 5736 5734 5732 5729 5726 5722 5717 5709 5699 5693 5690 5687 5684 5681 5678 5675 5671 5667
5815 5809 5803 5799 5795 5790 5785 5781 5776 5772 5769 5765 5762 5758 5754 5752 5749 5746 5744 5742 5740 5738 5736 5733 5731 5730 5728 5727 5724 5721 5717 5714 5707 5699 5691 5686 5683 5680 5677 5674 5671 5667 5663
5815 5808 5802 5798 5794 5789 5784 5780 5775 5771 5766 5762 5759 5756 5751 5748 5745 5742 5740 5737 5734 5733 5731 5729 5726 5724 5722 5721 5719 5716 5713 5707 5702 5695 5689 5683 5679 5676 5673 5668 5664 5662 5659
5812 5806 5802 5798 5793 5788 5782 5778 5773 5769 5765 5760 5756 5752 5749 5744 5740 5736 5734 5732 5729 5727 5726 5724 5721 5719 5717 5715 5713 5710 5707 5702 5698 5692 5686 5680 5675 5671 5668 5666 5661 5657 5654
5810 5805 5801 5796 5790 5785 5780 5775 5770 5765 5761 5756 5751 5748 5744 5740 5733 5731 5728 5727 5724 5722 5720 5719 5716 5714 5711 5708 5706 5704 5702 5698 5693 5689 5683 5678 5673 5670 5667 5663 5658 5654 5648
5808 5803 5799 5793 5787 5783 5778 5772 5766 5761 5757 5752 5747 5743 5738 5732 5729 5726 5724 5722 5720 5718 5716 5714 5714 5710 5706 5702 5699 5697 5695 5693 5690 5686 5680 5676 5672 5669 5664 5660 5656 5652 5647
5805 5800 5796 5791 5785 5780 5774 5768 5763 5758 5753 5748 5743 5739 5733 5728 5725 5722 5719 5718 5716 5714 5712 5710 5707 5703 5700 5697 5694 5691 5688 5685 5684 5682 5678 5674 5670 5667 5663 5658 5653 5649 5645
5801 5797 5793 5788 5781 5775 5769 5764 5760 5755 5750 5745 5740 5735 5730 5724 5720 5717 5714 5713 5710 5708 5706 5704 5701 5697 5693 5691 5689 5686 5682 5678 5677 5674 5672 5668 5665 5661 5657 5653 5648 5643 5638
5797 5793 5789 5784 5778 5771 5766 5761 5757 5753 5747 5742 5737 5733 5728 5721 5715 5713 5710 5709 5705 5703 5700 5697 5694 5691 5687 5685 5683 5680 5676 5673 5672 5668 5665 5662 5658 5655 5651 5648 5644 5639 5635
5793 5789 5784 5779 5774 5769 5763 5758 5753 5748 5743 5738 5733 5729 5725 5719 5712 5708 5705 5704 5702 5699 5696 5692 5688 5684 5680 5678 5676 5673 5670 5668 5666 5663 5659 5655 5652 5648 5645 5642 5640 5636 5631
5785 5781 5778 5773 5769 5765 5759 5754 5749 5744 5737 5733 5728 5724 5721 5716 5710 5705 5701 5699 5697 5694 5691 5688 5683 5679 5675 5672 5669 5666 5664 5662 5660 5657 5653 5650 5646 5643 5640 5637 5634 5631 5628
5777 5773 5771 5767 5763 5759 5754 5748 5743 5738 5733 5730 5726 5721 5717 5713 5708 5703 5698 5694 5691 5688 5686 5682 5677 5673 5669 5666 5663 5660 5657 5656 5654 5651 5648 5645 5643 5640 5636 5632 5629 5625 5622
5768 5765 5763 5759 5755 5752 5748 5744 5738 5734 5730 5726 5722 5718 5715 5711 5707 5701 5695 5690 5685 5681 5678 5674 5670 5667 5664 5661 5658 5655 5652 5651 5649 5646 5644 5641 5639 5635 5630 5627 5622 5619 5615
5759 5756 5754 5751 5748 5744 5740 5737 5734 5731 5728 5724 5721 5717 5712 5707 5704 5700 5695 5689 5684 5679 5674 5670 5666 5662 5659 5657 5655 5652 5649 5647 5644 5641 5639 5635 5632 5628 5625 5622 5618 5614 5609
5749 5747 5744 5742 5740 5737 5733 5729 5725 5723 5721 5718 5716 5712 5709 5705 5700 5695 5690 5686 5680 5675 5670 5667 5664 5662 5659 5656 5653 5650 5646 5644 5641 5638 5634 5631 5627 5623 5619 5616 5613 5608 5604
5741 5739 5737 5735 5732 5730 5727 5723 5718 5714 5711 5709 5707 5704 5701 5697 5693 5688 5683 5679 5674 5669 5666 5664 5663 5660 5658 5655 5652 5648 5644 5641 5638 5634 5630 5626 5623 5618 5614 5610 5607 5603 5599
5733 5731 5728 5726 5724 5722 5720 5718 5715 5711 5706 5703 5699 5695 5693 5689 5685 5680 5675 5670 5666 5662 5662 5661 5660 5658 5655 5651 5649 5645 5641 5638 5633 5629 5625 5621 5617 5613 5609 5605 5602 5598 5594
5723 5722 5720 5718 5717 5714 5713 5712 5710 5707 5703 5700 5696 5689 5684 5680 5675 5670 5667 5666 5665 5662 5660 5658 5657 5655 5652 5649 5645 5641 5637 5633 5629 5625 5620 5616 5612 5608 5604 5601 5597 5592 5588
5714 5712 5711 5710 5709 5707 5706 5704 5703 5700 5697 5695 5691 5687 5679 5673 5669 5664 5661 5662 5661 5660 5658 5655 5653 5651 5648 5645 5641 5637 5632 5628 5624 5619 5615 5611 5607 5603 5599 5595 5592 5588 5583
5706 5705 5701 5701 5701 5700 5698 5696 5694 5693 5690 5688 5686 5683 5677 5673 5669 5665 5661 5658 5657 5656 5653 5651 5648 5645 5643 5639 5636 5632 5627 5623 5619 5614 5610 5605 5602 5598 5594 5590 5587 5583 5580
5697 5697 5695 5694 5693 5692 5690 5689 5687 5685 5684 5682 5679 5676 5670 5669 5667 5664 5660 5656 5653 5651 5649 5645 5643 5641 5638 5634 5631 5626 5622 5617 5613 5608 5604 5599 5595 5592 5588 5584 5581 5578 5574
5688 5688 5687 5685 5684 5682 5681 5680 5678 5677 5676 5675 5673 5670 5665 5663 5662 5659 5656 5653 5649 5646 5643 5639 5637 5633 5631 5627 5624 5620 5615 5611 5606 5602 5597 5592 5588 5585 5582 5578 5575 5571 5568
5679 5679 5678 5676 5673 5673 5672 5671 5670 5668 5667 5666 5664 5662 5660 5657 5655 5654 5652 5648 5644 5640 5636 5632 5628 5625 5622 5619 5615 5610 5605 5601 5597 5594 5589 5585 5581 5578 5575 5571 5568 5564 5560
5670 5670 5669 5667 5664 5663 5663 5663 5661 5660 5659 5658 5655 5654 5653 5650 5648 5646 5643 5640 5637 5632 5628 5624 5620 5616 5613 5609 5605 5600 5596 5592 5588 5584 5580 5577 5574 5570 5566 5563 5559 5556 5552
5662 5661 5659 5658 5657 5655 5655 5654 5653 5652 5650 5649 5647 5646 5645 5643 5640 5637 5633 5630 5627 5623 5619 5616 5612 5607 5603 5599 5594 5590 5587 5582 5579 5575 5571 5567 5565 5562 5558 5554 5551 5547 5544